Weather History for PANC - April, 2014

Change the Weather History Date:

Tuesday, April 22, 2014

  Actual Average Record
Temperature  
Mean Temperature 44 °F 39 °F  
Max Temperature 57 °F 47 °F 58 °F (1936)
Min Temperature 31 °F 32 °F 6 °F (1924)
Degree Days  
Heating Degree Days 21    
Month to date heating degree days 633  
Since 1 July heating degree days 8548  
Cooling Degree Days 0    
Month to date cooling degree days 0  
Year to date cooling degree days 0  
Moisture  
Dew Point 28 °F    
Average Humidity 57    
Maximum Humidity 78    
Minimum Humidity 35    
Precipitation  
Precipitation 0.00 in 0.01 in 0.18 in (2010)
Month to date precipitation 0.04 0.33  
Year to date precipitation 2.76 2.38  
Snow  
Snow 0.00 in 0.10 in 1.70 in (2010)
Month to date snowfall 0.4 3.4  
Since 1 July snowfall 64.7 73.6  
Snow Depth 0.00 in    
Sea Level Pressure  
Sea Level Pressure 29.84 in    
Wind  
Wind Speed 3 mph (WNW)    
Max Wind Speed 6 mph    
Max Gust Speed 24 mph    
Visibility 10 miles    
Events      
T = Trace of Precipitation, MM = Missing Value Source: NWS Daily Summary

Daily Weather History Graph

Daily Weather History Graph

Search for Another Location

Airport or City:

Trip Planner

Search our weather history database for the weather conditions in past years. The results will help you decide how hot, cold, wet, or windy it might be!

Date:

Astronomy

Apr. 22, 2014 Rise Set
Actual Time 6:17 AM AKDT 9:41 PM AKDT
Civil Twilight 5:26 AM AKDT 10:33 PM AKDT
Nautical Twilight 4:11 AM AKDT 11:49 PM AKDT
Astronomical Twilight 2:31 AM AKDT 1:26 AM AKDT
Moon 4:09 AM AKDT (4/22) 1:02 PM AKDT (4/22)
Length of Visible Light 17h 07m
Length of Day
15h 23m
Last Quarter, 44% of the Moon is Illuminated
Apr 22
Last Quarter
Apr 28
New
May 6
First Quarter
May 14
Full
May 21
Last Quarter

Hourly Weather History & Observations

Time (AKDT) Temp. Windchill Dew Point Humidity Pressure Visibility Wind Dir Wind Speed Gust Speed Precip Events Conditions
12:53 AM 37.9 °F 35.5 °F 27.0 °F 65% 29.95 in 10.0 mi South 3.5 mph - N/A   Partly Cloudy
1:53 AM 43.0 °F 39.5 °F 26.1 °F 51% 29.94 in 10.0 mi East 5.8 mph - N/A   Partly Cloudy
2:53 AM 39.0 °F - 27.0 °F 62% 29.94 in 10.0 mi Calm Calm - N/A   Partly Cloudy
3:53 AM 36.0 °F - 27.0 °F 70% 29.94 in 10.0 mi Calm Calm - N/A   Partly Cloudy
4:53 AM 35.1 °F 31.0 °F 25.0 °F 67% 29.93 in 10.0 mi SSE 4.6 mph - N/A   Partly Cloudy
5:53 AM 34.0 °F 29.8 °F 26.1 °F 73% 29.92 in 10.0 mi NW 4.6 mph - N/A   Partly Cloudy
6:53 AM 32.0 °F - 26.1 °F 79% 29.91 in 10.0 mi Calm Calm - N/A   Partly Cloudy
7:53 AM 37.0 °F - 28.9 °F 73% 29.91 in 10.0 mi Calm Calm - N/A   Partly Cloudy
8:53 AM 43.0 °F - 27.0 °F 53% 29.89 in 10.0 mi Calm Calm - N/A   Partly Cloudy
9:53 AM 46.0 °F 44.8 °F 26.1 °F 46% 29.89 in 10.0 mi ENE 3.5 mph - N/A   Partly Cloudy
10:53 AM 48.0 °F - 25.0 °F 41% 29.87 in 10.0 mi NE 3.5 mph - N/A   Partly Cloudy
11:53 AM 48.9 °F - 28.0 °F 44% 29.86 in 10.0 mi NW 4.6 mph - N/A   Partly Cloudy
12:53 PM 53.1 °F - 27.0 °F 37% 29.85 in 10.0 mi NNW 5.8 mph - N/A   Partly Cloudy
1:53 PM 55.0 °F - 28.0 °F 35% 29.83 in 10.0 mi NW 5.8 mph - N/A   Partly Cloudy
2:53 PM 55.0 °F - 28.0 °F 35% 29.81 in 10.0 mi WNW 6.9 mph - N/A   Partly Cloudy
3:53 PM 55.0 °F - 28.9 °F 37% 29.79 in 10.0 mi WNW 5.8 mph - N/A   Scattered Clouds
4:53 PM 55.0 °F - 28.0 °F 35% 29.77 in 10.0 mi WNW 5.8 mph - N/A   Scattered Clouds
5:53 PM 55.9 °F - 28.9 °F 36% 29.75 in 10.0 mi West 5.8 mph - N/A   Scattered Clouds
6:53 PM 54.0 °F - 28.0 °F 37% 29.74 in 10.0 mi NW 4.6 mph - N/A   Scattered Clouds
7:53 PM 54.0 °F - 28.0 °F 37% 29.72 in 10.0 mi WNW 4.6 mph - N/A   Scattered Clouds
8:53 PM 51.1 °F - 28.9 °F 43% 29.71 in 10.0 mi NW 3.5 mph - N/A   Partly Cloudy
9:53 PM 46.0 °F 41.9 °F 28.9 °F 51% 29.71 in 10.0 mi WSW 8.1 mph - N/A   Partly Cloudy
10:53 PM 42.1 °F 35.2 °F 30.9 °F 65% 29.72 in 10.0 mi South 12.7 mph 24.2 mph N/A   Scattered Clouds
11:53 PM 43.0 °F 36.8 °F 30.9 °F 62% 29.72 in 10.0 mi SSW 11.5 mph - N/A   Scattered Clouds